Regional Weather Roundup
Issued by NWS

Home | Current Version | Previous Version | Graphics & Text | Print | Product List | Glossary On
Versions: 1 2 3 4 5 6 7 8 9 10 11 12 13 14 15 16 17 18 19 20 21 22 23 24 25 26 27 28 29 30 31 32 33 34 35 36 37 38 39 40 41 42 43 44 45 46 47 48 49 50
000
ASUS45 KABQ 212101
RWRNM
NEW MEXICO REGIONAL WEATHER ROUNDUP
NATIONAL WEATHER SERVICE ALBUQUERQUE NM
300 PM MDT THU SEP 21 2017

NOTE: "FAIR" MEANS FEW OR NO CLOUDS BELOW 12,000 FEET AGL WITH NO
       SIGNIFICANT WEATHER OR OBSTRUCTIONS TO VISION.

      THIS PRODUCT IS RELEASED AS TWO VERSIONS.  ONE VERSION NEAR
      THE TOP OF THE HOUR CONTAINING PRELIMINARY DATA FROM ALBUQUERQUE
      AND OTHER STATIONS.  A FINAL VERSION WITH ADDITIONAL DATA IS
      ISSUED ABOUT 10 MINUTES AFTER THE HOUR.

NMZ501-503-504-510>518-212200-
NORTHWEST PLATEAU/NORTHCENTRAL MOUNTAINS

CITY           SKY/WX    TMP DP  RH WIND       PRES   REMARKS
FARMINGTON     FAIR      83  19   9 SW12G23   29.88F
LOS ALAMOS     FAIR      76  23  14 SW9G25    30.06F
SANTA FE       FAIR      80  30  16 SW18G26   30.01F
TAOS           FAIR      76  30  18 SW10G25   30.05
ANGEL FIRE     FAIR      68  31  25 W21G26    30.12F

$$
NMZ402-403-502-505>509-212200-
WESTCENTRAL MOUNTAINS/SOUTHWEST MOUNTAINS

CITY           SKY/WX    TMP DP  RH WIND       PRES   REMARKS
GALLUP         FAIR      80  24  12 SW23G35   29.99F
GRANTS         FAIR      82  22  11 W20G31    30.01F
SILVER CITY    FAIR      83  43  24 W16       30.01F

$$
NMZ407-409-411-412-212200-
SOUTHERN DESERTS

CITY           SKY/WX    TMP DP  RH WIND       PRES   REMARKS
DEMING         FAIR      89  46  22 W18G26    29.93F
LAS CRUCES     FAIR      90  43  19 SW14G25   29.95F
HOLLOMAN AFB   FAIR      92  44  18 SW10G18   29.93F
ALAMOGORDO     FAIR      91  41  17 SW14G25   29.94F
T OR C         FAIR      90  35  14 SW16G30   29.93F

$$
NMZ519>523-212200-
CENTRAL VALLEYS/CENTRAL HIGHLANDS

CITY           SKY/WX    TMP DP  RH WIND       PRES   REMARKS
ALBUQUERQUE    FAIR      83  29  14 S9        29.95F
DOUBLE EAGLE   MOSUNNY   82  34  17 SW9       29.98F
CLINES CORNERS FAIR      79  24  13 SW23G32   30.07F
BELEN          FAIR      87  32  13 S7        29.93F
SOCORRO        FAIR      89  35  14 S21G29    29.91F

$$
NMZ524>526-539-540-212200-
SOUTHCENTRAL MOUNTAINS

CITY           SKY/WX    TMP DP  RH WIND       PRES   REMARKS
RUIDOSO        FAIR      77  36  22 SW14G31   30.12S

$$
NMZ527>531-212200-
NORTHEAST HIGHLANDS/NORTHEAST PLAINS

CITY           SKY/WX    TMP DP  RH WIND       PRES   REMARKS
LAS VEGAS      FAIR      78  24  13 SW17G31   30.03F
RATON          FAIR      83  27  13 SW20G31   29.92S
CLAYTON        FAIR      87  39  18 SW28G36   29.87F

$$
NMZ532>537-212200-
EASTCENTRAL PLAINS

CITY           SKY/WX    TMP DP  RH WIND       PRES   REMARKS
SANTA ROSA     FAIR      91  32  12 SW18G30   29.89F
TUCUMCARI      FAIR      95  42  16 S22G31    29.82F
CANNON AFB     NOT AVBL
CLOVIS AIRPORT FAIR      90  47  22 SW18G30   29.92F

$$
NMZ028-029-538-212200-
SOUTHEAST PLAINS

CITY           SKY/WX    TMP DP  RH WIND       PRES   REMARKS
ROSWELL        FAIR      97  44  16 S28       29.86F
ARTESIA        FAIR      93  48  21 S16G23    29.88F
CARLSBAD       FAIR      97  46  17 S22G28    29.85F
HOBBS          MOSUNNY   95  45  17 SW14      29.90F


$$




USA.gov is the U.S. government's official web portal to all federal, state and local government web resources and services.